Home > Weather > Rothesay > Past weeks

Flag for Canada Weather for the Past 2 Weeks in Rothesay, New Brunswick, Canada

Now
25 °F

Light snow. More clouds than sun.


Feels Like: 14 °F
Forecast: 15 / 27 °F
Wind: 12 mph from North

Location: Saint John

Current Time: Feb 11, 2016 at 11:41:26 AM

Latest Report: Feb 11, 2016 at 11:00 AM


Visibility: 2 mi

Pressure: 29.55 "Hg

Humidity: 86%

Dew point: 21 °F

Location of RothesayLocation

Historic Weather in Rothesay — Graph

°F

Rothesay Temperature Yesterday

Maximum temperature yesterday: 27 °F (at 3:00 PM)
Minimum temperature yesterday: 10 °F (at 9:00 PM)
Average temperature yesterday: 17 °F

High & Low Weather Summary for the Past Weeks

 TemperatureHumidityPressure
High48 °F (Feb 4, 5:00 AM)100% (Jan 29, 1:00 PM)30.53 "Hg (Jan 29, 1:00 PM)
Low9 °F (Feb 3, 4:00 AM)40% (Feb 2, 12:00 PM)29.26 "Hg (Jan 29, 4:00 PM)
Average28 °F81%29.89 "Hg
* Reported Jan 27 10:00 AM — Feb 11 10:00 AM, Rothesay, Weather by CustomWeather, © 2016

Note: Actual official high and low records may vary slightly from our data, if they occured in-between our weather recording intervals... More about our weather records

Advertising

Rothesay Weather History for the Previous 24 Hours

 ConditionsComfort  
Time TempWeatherWind HumidityBarometerVisibility
10:00 AM
Thu, Feb 11
23 °FLight snow. More clouds than sun.9 mph100%29.56 "Hg1 mi
9:00 AM25 °FHeavy snow. Ice fog.9 mph100%29.55 "Hg0 mi
8:47 AM27 °FHeavy snow. Ice fog.9 mph93%29.54 "Hg0 mi
8:00 AM25 °FSnow. Ice fog.8 mph93%29.54 "Hg1 mi
7:00 AM23 °FLight snow. Mostly cloudy.5 mph93%29.54 "Hg1 mi
6:00 AM21 °FLight snow. Mostly cloudy.3 mph93%29.54 "Hg1 mi
5:00 AM19 °FLight snow. Overcast.3 mph93%29.55 "Hg2 mi
4:00 AM18 °FLight snow. Overcast.3 mph93%29.55 "Hg4 mi
3:00 AM18 °FLight snow. Overcast.3 mph93%29.57 "Hg6 mi
2:00 AM16 °FMostly cloudy.2 mph86%29.57 "Hg10 mi
1:00 AM14 °FOvercast.2 mph92%29.57 "Hg12 mi
12:00 AM14 °FMostly cloudy.3 mph85%29.57 "Hg12 mi
11:00 PM
Wed, Feb 10
10 °FPassing clouds.2 mph92%29.58 "Hg15 mi
10:00 PM10 °FPassing clouds.No wind92%29.59 "Hg15 mi
9:00 PM10 °FPassing clouds.2 mph92%29.60 "Hg15 mi
8:00 PM12 °FPassing clouds.No wind92%29.60 "Hg15 mi
7:00 PM16 °FPassing clouds.No wind93%29.59 "Hg15 mi
6:00 PM18 °FPassing clouds.No wind93%29.58 "Hg15 mi
5:00 PM23 °FBroken clouds.5 mph74%29.58 "Hg15 mi
4:00 PM25 °FPartly sunny.3 mph74%29.58 "Hg15 mi
3:00 PM27 °FPartly sunny.7 mph69%29.57 "Hg15 mi
2:00 PM23 °FPartly sunny.5 mph74%29.59 "Hg15 mi
1:00 PM21 °FPartly sunny.7 mph80%29.60 "Hg15 mi
12:00 PM18 °FOvercast.8 mph86%29.62 "Hg10 mi
11:00 AM18 °FIce fog.5 mph86%29.63 "Hg6 mi
Weather by CustomWeather, © 2016

See weather overviewHow to use our weather pages